Regional Weather Roundup
Issued by NWS

Home | Current Version | Previous Version | Graphics & Text | Print | Product List | Glossary Off
Versions: 1 2 3 4 5 6 7 8 9 10 11 12 13 14 15 16 17 18 19 20 21 22 23 24 25 26 27 28 29 30 31 32 33 34 35 36 37 38 39 40 41 42 43 44 45 46 47 48 49 50

000
ASUS43 KMKX 060659
RWRWI

WISCONSIN REGIONAL WEATHER ROUNDUP
NATIONAL WEATHER SERVICE MILWAUKEE/SULLIVAN WI
100 AM CST FRI MAR 06 2015

NOTE: "FAIR" INDICATES FEW OR NO CLOUDS BELOW 12,000 FEET WITH NO
SIGNIFICANT WEATHER AND/OR OBSTRUCTIONS TO VISIBILITY.

WIZ001-002-006>008-014>016-023>028-060800-
NORTHWEST WISCONSIN

CITY           SKY/WX    TMP DP  RH WIND       PRES   REMARKS
SUPERIOR ARPT  FAIR       7  -2  66 SW10G16   30.19F WCI  -7
ASHLAND        CLEAR      6  -3  66 S9        30.20F WCI  -8
HAYWARD        CLEAR      3  -4  72 S9        30.20F WCI -12
SIREN          CLEAR      5  -1  76 S6        30.21F WCI  -6
CUMBERLAND     PTCLDY    -2  -6  84 S9        30.23F WCI -18
RICE LAKE      PTCLDY     1  -5  78 SE7       30.27F WCI -12
CHETEK         PTCLDY     3  -3  75 SE6       30.27F WCI  -8
LADYSMITH      PTCLDY     1  -5  75 S3        30.28F
EAU CLAIRE     NOT AVBL
MENOMONIE      CLEAR      3  -4  74 E5        30.30F WCI  -7
NEW RICHMOND   CLEAR      6  -1  75 S9        30.25F WCI  -8
OSCEOLA        CLEAR      5   0  77 S6        30.27F WCI  -5
$$

WIZ003>005-009-010-017-018-060800-
NORTH CENTRAL WISCONSIN

CITY           SKY/WX    TMP DP  RH WIND       PRES   REMARKS
MANITOWISH WTR CLEAR     -1  -8  71 SW7       30.19F WCI -15
ARBOR VITAE    CLEAR     -1  -8  71 SW3       30.20F
WOODRUFF       CLEAR     -1  -8  71 SW3       30.20F
RHINELANDER    PTCLDY    -1 -11  62 SW9       30.22F WCI -16
EAGLE RIVER    PTCLDY    -2 -12  60 CALM      30.20F
LAND O LAKES   CLEAR      0  -9  65 SW6       30.20F WCI -12
PHILLIPS       CLEAR     -1  -8  71 S5        30.22F WCI -11
TOMAHAWK       PTCLDY    -6 -12  73 CALM      30.25F
MEDFORD        PTCLDY    -1  -8  72 S7        30.26F WCI -14
MERRILL        PTCLDY    -7 -14  71 CALM      30.29F
$$

WIZ029-030-035-036-043>047-060800-
CENTRAL WISCONSIN

CITY           SKY/WX    TMP DP  RH WIND       PRES   REMARKS
WAUSAU         PTCLDY     1  -9  62 S5        30.29F WCI  -9
MOSINEE        PTCLDY    -4  -9  77 SW6       30.32F WCI -16
MARSHFIELD     PTCLDY    -1  -8  72 SW8       30.30F WCI -15
STEVENS POINT  PTCLDY    -1  -8  71 S5        30.35F WCI -11
WAUPACA        PTCLDY     5  -6  60 SW5       30.38F WCI  -4
WAUTOMA        NOT AVBL
WISC RAPIDS    PTCLDY     0  -8  69 S6        30.37F WCI -12
CAMP DOUGLAS   NOT AVBL
$$

WIZ011>013-019>022-031-037>040-048>050-060800-
NORTHEAST WISCONSIN

CITY           SKY/WX    TMP DP  RH WIND       PRES   REMARKS
ANTIGO         PTCLDY    -4 -12  70 SW7       30.27F WCI -18
SHAWANO        PTCLDY     5  -7  57 CALM      30.36F
OCONTO         PTCLDY     1  -9  63 S3        30.38F
STURGEON BAY   PTCLDY     5  -9  51 SW7       30.37F WCI  -7
GREEN BAY      PTCLDY     4  -7  60 SW7       30.39F WCI  -8
MANITOWOC      NOT AVBL
APPLETON       PTCLDY     5  -8  56 SW10      30.38F WCI -10
CLINTONVILLE   PTCLDY     1  -8  66 SW6       30.37F WCI -10
OSHKOSH        MOCLDY     3  -6  66 SW6       30.39F WCI  -8
$$

WIZ032>034-041-042-053>061-060800-
SOUTHWEST WISCONSIN

CITY           SKY/WX    TMP DP  RH WIND       PRES   REMARKS
LA CROSSE      PTCLDY     5  -4  66 S12       30.39F WCI -11
SPARTA         CLEAR      2  -6  68 CALM      30.39F
VIROQUA        PTCLDY     0  -6  78 S7        30.34F WCI -13
BOSCOBEL       PTCLDY    -7 -12  79 CALM      30.45F
PRAIRIE DU CHI CLEAR     -2  -8  77 CALM      30.45F
PLATTEVILLE    PTCLDY    -2  -8  76 SE7       30.43F WCI -15
$$

WIZ056-057-062-063-064-067-068-060800-
SOUTH CENTRAL WISCONSIN

CITY           SKY/WX    TMP DP  RH WIND       PRES   REMARKS
REEDSBURG      MOCLDY     2  -5  71 CALM      30.41F
BARABOO/DELLS  MOCLDY     3  -6  67 CALM      30.40F
LONE ROCK      NOT AVBL
MINERAL POINT  PTCLDY     3  -6  66 S3        30.41F
MADISON        PTCLDY     3  -6  66 CALM      30.43F
MIDDLETON      PTCLDY     4  -6  62 SW3       30.43F
WATERTOWN      MOCLDY     1  -6  71 CALM      30.44S
MONROE         PTCLDY     1  -4  78 SW7       30.42F WCI -11
JANESVILLE     PTCLDY     1  -8  66 CALM      30.47F
$$

WIZ051-052-058>065-066-070>072-060800-
SOUTHEAST WISCONSIN

CITY           SKY/WX    TMP DP  RH WIND       PRES   REMARKS
MILWAUKEE      PTCLDY     4  -7  60 SW8       30.46F WCI  -9
WAUKESHA       PTCLDY     3  -6  66 SW6       30.45F WCI  -8
MILWAUKEE/TIMM PTCLDY     5  -6  61 SW7       30.46F WCI  -7
RACINE         PTCLDY     2  -8  63 SW6       30.49F WCI  -9
BURLINGTON     PTCLDY    -8 -14  78 SW3       30.47F
KENOSHA        PTCLDY     0  -7  72 SW8       30.47F WCI -14
FOND DU LAC    MOCLDY     4  -5  66 SW9       30.41F WCI -10
SHEBOYGAN      PTCLDY     1  -7  68 SW10      30.42F WCI -15
WEST BEND      PTCLDY     3  -8  60 SW6       30.42F WCI  -8
JUNEAU         MOCLDY     0  -7  71 SW7       30.44S WCI -13
$$

LSZ147-162-060800-
LAKE SUPERIOR

STATION/POSITION TIME  TEMP    WIND        PRES    WAVE
                       AIR SEA DIR/SP/G            HT/PER
                 (UTC) (F)     (DEG/KT/KT) (MB)    (FT/S)
DEVILS ISLAND    0600    9     220/  9/ 10 1024.4F
PORT WING        0620    9     190/ 10/ 17 1022.4F
SAXON HARBOR     0600    9     200/ 11/ 17 1023.7
$$

LMZ867-665-643>646-060800-
LAKE MICHIGAN

STATION/POSITION TIME  TEMP    WIND        PRES    WAVE
                       AIR SEA DIR/SP/G            HT/PER
                 (UTC) (F)     (DEG/KT/KT) (MB)    (FT/S)
NORTHPORT PIER   0622    8     260/  5/ 16 1027.8F
SISTER BAY       0628    6     250/ 11/ 12   N/A
KEWAUNEE LAKESHO 0600    6     240/  6/ 10 1028.8F
SHEBOYGAN LAKESH 0600    8     230/ 11/ 13 1032.7F
PORT WASHINGTON  0640    6     260/  6/  9 1031.8F
MILWAUKEE LAKESH 0600    9     260/ 12/ 16   N/A
KENOSHA   LAKESH 0600    7     230/  7/ 11 1032.5S
$$

TC  - TEMPERATURE IN CELSIUS
VSB - VISIBILITY IN STATUTE MILES
WCI - WIND CHILL INDEX
HX  - HEAT INDEX




USA.gov is the U.S. government's official web portal to all federal, state and local government web resources and services.